Delta Virtual Airport Information Service

Moscow Sheremetyevo International Airport

ICAO: UUEE Country: Russia
Latitude: 55.9726 Longitude: 37.4146
Latest Arrival : DAC6996 (HESH-UUEE) Latest Departure : DAC6996 (UUEE-ENSB)


WX CaptureLIVE
Data provided by noaa.gov | Fetched at 07:34:18

METAR : UUEE 271200Z 35002G07MPS CAVOK 29/10 Q1019 R24C/CLRD62 R24R/CLRD62 NOSIG

TAF : UUEE 271052Z 2712/2812 32002MPS 9999 SCT040 TX27/2712Z TN16/2801Z BECMG 2807/2809 20005G11MPS TEMPO 2808/2812 18009G16MPS -SHRA BKN020CB


Runway Data for UUEE
Data provided by openaviationdata.com

Runway ID Mag Var Hdg Length Elevation Surface ILS Freq ILS Id ILS Slope
07L 9 65° 11643 ft 630 ft Concrete 108.1 IMR 2
07R 9 66° 11973 ft 630 ft Concrete 109.1 INL 2
25L 9 246° 11973 ft 630 ft Concrete 110.5 IBW 2
25R 9 245° 11643 ft 630 ft Concrete 111.3 IAD 2

Moscow Sheremetyevo International Airport, Russia
Use only for reference purposes



Not for navigational purposes.